BEIDOU-3 IGSO-2

Last updated on Sat Apr 13 2024 01:02:39 GMT+0100 (British Summer Time)

1 44337U 19035A 24103.57870192 -.00000117 00000+0 00000+0 0 9996 2 44337 55.1680 165.8435 0032918 207.4777 155.1817 1.00261570 17690
UTC large
Height (km)
Speed (km/s)
/
Latitude / Longitude
Inclination (degrees)
Orbital Period (minutes)
Azimuth
Elevation
Range (km)
Doppler Factor

Next 0 passes for location: London (51.5072 / 0.1276)

Sorry there are no passes over London.